[[{"header":{"parameterUnit":"m.s-1","parameterCategory":1,"la1":30.2991,"la2":30.254,"lo1":-89.0895,"lo2":-89.0444,"dy":0.0017,"dx":0.0017,"nx":28,"ny":28,"refTime":"2026-02-08T09:00:00:Z","depth":0,"parameterNumber":2,"parameterNumberName":"U-component_of_WINDS"},"data":[0,0,0,0,0,0,0,0,0,0,0,0,0,0,0,0,0,0,0,0,0,0,0,0,0,0,0,0,0,0,0,0,0,0,0,0,0,0,0,0,0,0,0,0,0,0,0,0,0,0,0,0,0,0,0,0,0,0,0.2981,0.2982,0,0.2988,0.2988,0.2988,0.2989,0.2989,0.2989,0.2989,0.2995,0.2995,0.2995,0,0,0,0,0,0,0,0,0,0,0,0,0,0.297,0.297,0.2981,0.2982,0.2982,0.2988,0.2988,0.2988,0.2989,0.2989,0.2989,0.2989,0.2995,0.2995,0.2995,0,0,0,0,0,0,0,0,0,0,0,0,0,0.2975,0.297,0.2981,0.2983,0.2983,0.2988,0.2988,0.2988,0.2989,0.2989,0.2989,0.2989,0.2995,0.2995,0.2995,0.2999,0,0,0.2996,0.2996,0,0,0,0,0,0,0,0,0.2975,0.2976,0.2983,0.2983,0.2983,0.2988,0.2986,0.2992,0.2989,0.2987,0.2989,0.2989,0.2992,0.2993,0.2994,0.2999,0.2999,0.2996,0.2996,0.2996,0.2997,0,0,0,0,0,0,0,0.2975,0.2975,0.2984,0.2983,0.2983,0.2983,0.2984,0.2987,0.299,0.2987,0.2987,0.2988,0.2992,0.2994,0.2994,0.2999,0.2996,0.2996,0.2997,0.2997,0.3007,0.3007,0,0,0,0,0,0,0.2974,0.2975,0.2984,0.2984,0.2979,0.2983,0.2984,0.2986,0.299,0.299,0.2988,0.2988,0.2993,0.2994,0.2995,0.2999,0.2996,0.2997,0.2997,0.3007,0.3007,0.3007,0,0,0,0,0,0,0.2974,0.2975,0.2983,0.298,0.2981,0.2984,0.2986,0.2986,0.2988,0.2991,0.2991,0.2989,0.2993,0.2994,0.2998,0.2999,0.2997,0.2997,0.3007,0.3007,0.3007,0.3008,0,0,0,0,0,0,0.2973,0.2975,0.2976,0.298,0.2981,0.2987,0.2986,0.2987,0.2988,0.2988,0.2992,0.2992,0.2993,0.2997,0.2998,0.3,0.2997,0.3007,0.3007,0.3007,0.3008,0.3008,0.3008,0,0,0,0,0,0.2973,0.2976,0.2976,0.2977,0.2983,0.2987,0.2987,0.2989,0.2988,0.299,0.2992,0.2992,0.2999,0.2998,0.2998,0.3,0.3007,0.3007,0.3007,0.3008,0.3008,0.3008,0,0,0,0,0,0,0.2972,0.2976,0.2977,0.2981,0.2984,0.2987,0.2989,0.2989,0.2992,0.2992,0.2994,0.2994,0.2998,0.2999,0.2998,0.3004,0.3003,0.3003,0.3003,0.3003,0.3003,0.3003,0.2998,0,0,0,0,0,0.2972,0.2975,0.2979,0.2982,0.2983,0.2986,0.2988,0.2989,0.2991,0.2992,0.2994,0.2997,0.3,0.3001,0.3004,0.3008,0.3009,0.3009,0.301,0.301,0.301,0.3013,0.3013,0.3008,0.3008,0.3008,0,0,0.2973,0.2976,0.2977,0.2982,0.2984,0.2987,0.2987,0.299,0.2992,0.2993,0.2996,0.2998,0.3001,0.3005,0.3006,0.3006,0.3012,0.301,0.301,0.3011,0.3013,0.3013,0.3014,0.3008,0.3008,0.3008,0,0,0.2976,0.2978,0.2981,0.2983,0.2987,0.2988,0.2989,0.2993,0.2994,0.2997,0.2998,0.3001,0.3005,0.3007,0.3009,0.3013,0.3013,0.3013,0.3015,0.3017,0.3018,0.3018,0.3019,0.302,0.3014,0.3014,0.3014,0,0.2976,0.2981,0.2983,0.2986,0.2988,0.2989,0.2992,0.2994,0.2998,0.2999,0.2999,0.3005,0.3007,0.3011,0.3012,0.3013,0.3014,0.3013,0.3017,0.3018,0.3018,0.302,0.302,0.3014,0.3014,0.3014,0.3014,0,0.2981,0.2984,0.2986,0.2991,0.2993,0.2996,0.2998,0.3,0.3001,0.3003,0.3006,0.3009,0.3012,0.3013,0.3014,0.3018,0.3017,0.3017,0.3016,0.3019,0.302,0.3021,0.3014,0.3014,0.3014,0.3014,0,0,0.2983,0.2989,0.299,0.2992,0.2995,0.2998,0.3001,0.3004,0.3006,0.3009,0.3012,0.3016,0.3015,0.3017,0.3018,0.302,0.3023,0.302,0.302,0.3021,0.3028,0.3028,0.3029,0.3023,0.3024,0.3024,0.3028,0,0.2987,0.2993,0.2995,0.3,0.3003,0.3004,0.3006,0.3009,0.3011,0.3013,0.3015,0.3018,0.3017,0.3019,0.3021,0.3022,0.3025,0.3022,0.3026,0.3026,0.3026,0.303,0.303,0.3034,0.3028,0.3028,0.3029,0,0.2992,0.2995,0.3,0.3004,0.3005,0.3008,0.3011,0.3014,0.3017,0.3018,0.302,0.3021,0.3024,0.3023,0.3027,0.3025,0.3027,0.3028,0.3028,0.3029,0.3028,0.3031,0.3035,0.3036,0.3029,0.3029,0.3029,0,0.2993,0.2999,0.3003,0.3004,0.3009,0.301,0.3012,0.3015,0.3017,0.302,0.3021,0.3025,0.3026,0.3029,0.303,0.3029,0.3035,0.3034,0.3036,0.3036,0.3037,0.3037,0.3042,0.3038,0.3038,0.3038,0.3038,0,0.2997,0.3,0.3004,0.3006,0.301,0.3012,0.3015,0.3017,0.302,0.3023,0.3023,0.3026,0.3028,0.3031,0.3032,0.3036,0.3036,0.3037,0.3038,0.3038,0.3037,0.3039,0.3039,0.3038,0.3038,0.3038,0.3038,0,0.2999,0.3002,0.3006,0.301,0.3011,0.3014,0.3017,0.3019,0.3021,0.3025,0.3026,0.3028,0.3032,0.3033,0.3037,0.3038,0.3043,0.3043,0.3042,0.3042,0.3044,0.3044,0.3051,0.3052,0.3046,0.3046,0.3046,0,0.3002,0.3005,0.3009,0.3011,0.3013,0.3016,0.3018,0.302,0.3022,0.3026,0.3028,0.3032,0.3035,0.304,0.3042,0.3045,0.3046,0.3048,0.3046,0.3046,0.3046,0.3046,0.3047,0.3048,0.3048,0.3048,0.3048,0,0.3006,0.3007,0.301,0.3014,0.3017,0.302,0.3023,0.3024,0.3027,0.3029,0.3033,0.3035,0.304,0.3043,0.3047,0.3048,0.3049,0.3049,0.305,0.3049,0.3049,0.305,0.3043,0.3049,0.3049,0.3049,0.3049,0.3049,0.3009,0.3011,0.3015,0.3018,0.3021,0.3024,0.3026,0.3028,0.3032,0.3036,0.3036,0.304,0.3043,0.3048,0.305,0.3053,0.3053,0.3053,0.3054,0.3054,0.3054,0.3048,0.3053,0.3053,0.3053,0.3053,0.3053,0,0.3013,0.3016,0.3019,0.3023,0.3026,0.3026,0.303,0.3032,0.3036,0.3039,0.3042,0.3046,0.3049,0.3052,0.3055,0.3057,0.3058,0.3058,0.3058,0.3059,0.3054,0.3054,0.3058,0.3058,0.3058,0.3058,0.3058,0.3058,0.3016,0.302,0.3022,0.3028,0.303,0.3034,0.3036,0.3038,0.3041,0.3046,0.3049,0.305,0.3053,0.3057,0.306,0.3061,0.3062,0.3063,0.3063,0.3059,0.3059,0.3059,0.3058,0.3063,0.3063,0.3067,0.3067,0.3068]},{"header":{"parameterUnit":"m.s-1","parameterCategory":1,"la1":30.2991,"la2":30.254,"lo1":-89.0895,"lo2":-89.0444,"dy":0.0017,"dx":0.0017,"nx":28,"ny":28,"refTime":"2026-02-08T09:00:00:Z","depth":0,"parameterNumber":3,"parameterNumberName":"V-component_of_WINDS"},"data":[0,0,0,0,0,0,0,0,0,0,0,0,0,0,0,0,0,0,0,0,0,0,0,0,0,0,0,0,0,0,0,0,0,0,0,0,0,0,0,0,0,0,0,0,0,0,0,0,0,0,0,0,0,0,0,0,0,0,0.6248,0.6248,0,0.6176,0.6175,0.6174,0.6136,0.6136,0.6136,0.6136,0.6057,0.6055,0.6053,0,0,0,0,0,0,0,0,0,0,0,0,0,0.635,0.6348,0.6248,0.6248,0.6247,0.6176,0.6175,0.6174,0.6136,0.6136,0.6136,0.6136,0.6058,0.6055,0.6053,0,0,0,0,0,0,0,0,0,0,0,0,0,0.6294,0.6348,0.6249,0.6219,0.6216,0.6176,0.6175,0.6174,0.6136,0.6136,0.6136,0.6136,0.6059,0.6056,0.6053,0.6035,0,0,0.6043,0.6042,0,0,0,0,0,0,0,0,0.6297,0.6291,0.6225,0.6221,0.6217,0.6165,0.6182,0.6127,0.6136,0.6166,0.6136,0.6136,0.6093,0.6087,0.6073,0.6031,0.6028,0.6043,0.6041,0.604,0.6039,0,0,0,0,0,0,0,0.6301,0.6293,0.622,0.6224,0.6219,0.6208,0.62,0.6171,0.6131,0.6164,0.6161,0.6153,0.6091,0.6076,0.6071,0.6027,0.6043,0.604,0.6038,0.6037,0.5965,0.5965,0,0,0,0,0,0,0.6311,0.6297,0.6222,0.6217,0.6258,0.6206,0.6198,0.6182,0.6131,0.6123,0.6153,0.6151,0.6082,0.6075,0.6068,0.6043,0.604,0.6037,0.6035,0.5965,0.5965,0.5965,0,0,0,0,0,0,0.6313,0.6304,0.6225,0.6256,0.6245,0.6205,0.6187,0.618,0.6166,0.6123,0.6115,0.6146,0.6081,0.6073,0.6043,0.604,0.6035,0.6033,0.5965,0.5965,0.5965,0.5995,0,0,0,0,0,0,0.6316,0.6305,0.6299,0.6257,0.6244,0.6203,0.6187,0.6179,0.6161,0.6158,0.6114,0.6107,0.6081,0.6048,0.604,0.6036,0.603,0.5965,0.5965,0.5965,0.5994,0.5995,0.5997,0,0,0,0,0,0.632,0.631,0.6299,0.629,0.6236,0.6203,0.6195,0.6167,0.6161,0.6154,0.6126,0.6108,0.6042,0.6046,0.6036,0.6031,0.5965,0.5965,0.5965,0.5993,0.5995,0.5997,0,0,0,0,0,0,0.6352,0.6304,0.6291,0.6268,0.624,0.6197,0.6187,0.617,0.6142,0.614,0.6104,0.6095,0.6069,0.6047,0.6052,0.601,0.6002,0.6,0.6026,0.6028,0.6029,0.6035,0.6028,0,0,0,0,0,0.6357,0.6336,0.6294,0.6277,0.6263,0.6228,0.6212,0.6192,0.6161,0.6149,0.6119,0.6088,0.606,0.6043,0.6015,0.599,0.5979,0.5982,0.5983,0.5985,0.5984,0.5968,0.5968,0.5964,0.5964,0.5964,0,0,0.6366,0.6337,0.6325,0.6283,0.6259,0.6236,0.6218,0.6195,0.6177,0.6145,0.6116,0.6093,0.6056,0.6029,0.6016,0.601,0.5982,0.5985,0.5986,0.5984,0.5968,0.5968,0.5968,0.5964,0.5964,0.5964,0,0,0.637,0.6347,0.633,0.6306,0.6271,0.6247,0.6243,0.6201,0.6185,0.6156,0.6131,0.6109,0.6062,0.6036,0.6017,0.6011,0.5993,0.6003,0.6012,0.5997,0.5997,0.5997,0.5994,0.5994,0.6002,0.6002,0.6002,0,0.6386,0.6352,0.6323,0.6301,0.6282,0.6254,0.6235,0.6213,0.617,0.6157,0.6151,0.6091,0.6064,0.6031,0.6029,0.6015,0.6008,0.6008,0.6,0.5999,0.5999,0.5996,0.5995,0.6003,0.6003,0.6003,0.6003,0,0.6372,0.6349,0.6339,0.6299,0.6279,0.6259,0.6226,0.6209,0.619,0.6167,0.6136,0.6103,0.6067,0.6058,0.6039,0.6021,0.6018,0.6007,0.5997,0.6001,0.5998,0.5996,0.6005,0.6005,0.6004,0.6004,0,0,0.6395,0.634,0.6336,0.6318,0.6276,0.6256,0.6234,0.6201,0.6186,0.6157,0.6137,0.6097,0.6086,0.6064,0.6043,0.603,0.6026,0.6019,0.6018,0.6021,0.6002,0.6011,0.6011,0.6014,0.6014,0.6013,0.6005,0,0.6394,0.6355,0.6327,0.6298,0.6275,0.6247,0.6228,0.6199,0.6176,0.6152,0.6126,0.6098,0.6086,0.6073,0.6059,0.603,0.6022,0.603,0.5993,0.5992,0.6003,0.6009,0.6018,0.6012,0.6004,0.6004,0.6003,0,0.6387,0.636,0.6329,0.6289,0.6278,0.6261,0.6228,0.6206,0.6172,0.6156,0.6132,0.6109,0.6083,0.6076,0.6038,0.6044,0.6027,0.6011,0.601,0.6005,0.5998,0.6004,0.601,0.6009,0.6001,0.6001,0.6001,0,0.6406,0.6362,0.6337,0.6322,0.6275,0.6263,0.6243,0.6209,0.619,0.6161,0.6148,0.6115,0.6097,0.6071,0.604,0.6037,0.6005,0.5995,0.5989,0.599,0.5984,0.5985,0.5987,0.5974,0.5974,0.5974,0.5974,0,0.6407,0.6389,0.6345,0.633,0.6309,0.6277,0.6255,0.6232,0.6202,0.6181,0.6154,0.6134,0.6094,0.6069,0.6044,0.6016,0.6008,0.5993,0.5987,0.5996,0.5998,0.5984,0.5983,0.5973,0.5974,0.5974,0.5974,0,0.6426,0.6396,0.6367,0.6325,0.6314,0.63,0.6262,0.6246,0.6221,0.6194,0.6186,0.6147,0.6115,0.6082,0.6039,0.6022,0.5995,0.5986,0.6007,0.6004,0.6,0.6,0.5993,0.599,0.598,0.598,0.598,0,0.6428,0.6414,0.637,0.6355,0.6335,0.631,0.6291,0.6259,0.624,0.62,0.6187,0.6155,0.6127,0.6078,0.6044,0.6011,0.6001,0.6,0.5995,0.6004,0.6,0.6001,0.5999,0.6002,0.6002,0.6003,0.6003,0,0.6435,0.6421,0.6396,0.6365,0.6344,0.6317,0.629,0.6278,0.6239,0.6219,0.6188,0.6166,0.6122,0.609,0.6052,0.6029,0.6009,0.6005,0.6001,0.601,0.6023,0.6015,0.6011,0.6005,0.6005,0.6004,0.6004,0.6004,0.6445,0.6431,0.6398,0.637,0.6347,0.6321,0.6304,0.6277,0.6251,0.6214,0.6195,0.6164,0.6128,0.6077,0.6054,0.6027,0.6021,0.6017,0.6016,0.6015,0.6017,0.6027,0.602,0.602,0.602,0.602,0.602,0,0.6451,0.6429,0.6403,0.6366,0.6344,0.6328,0.6297,0.6279,0.6252,0.6222,0.6195,0.6158,0.6126,0.609,0.6055,0.604,0.603,0.6032,0.6033,0.6027,0.6025,0.6031,0.6041,0.6041,0.6041,0.6041,0.6041,0.6041,0.6451,0.6426,0.6408,0.637,0.6347,0.6317,0.63,0.6276,0.6251,0.6212,0.6186,0.6163,0.613,0.6092,0.6061,0.6051,0.6039,0.6044,0.6031,0.6029,0.6028,0.6026,0.6032,0.6042,0.6042,0.6036,0.6036,0.6036]}]]